Torna al catalogo

USA 133

AttivoNavigazioneHEO
NORAD 25017·PAYLOAD·🇺🇸 United States

Lanciato Oct 24, 1997 da Vandenberg Space Force Base

Loading…

Prossimi Passaggi (prossime 24 ore)

TLE

ObsoletoSource: Space-Track

Epoca: Nov 30, 1997, 09:16 UTC

1 25017U 97064A   97334.38665906  .00079636 -30957-6  38009-3 0  9995
2 25017 034.5124 028.6818 3942148 277.6608 040.4643 07.71857302 30033

Traccia USA 133 in tempo reale con AllMySat

Download on the App Store